Blythe, CA

4:31 AM PST on January 31, 2015 (GMT -0800)
farmerman92225 | Change Station
CLOSE
Current Station
Personal Weather Station
Location: Blythe, CA
Elevation: 259 ft
Nearby Weather Stations

Elev 259 ft 33.62 °N, 114.66 °W | Updated 2 seconds ago

Partly Cloudy
Partly Cloudy
52.1 °F
Feels Like 52.1 °F
N
3.0
Wind Variable Wind from NE
Gusts 15.0 mph

Today
High -- | Low -- °F
--% Chance of Precip.
Yesterday
High -- | Low -- °F
Precip. -- in
6:35 AM 5:08 PM
Waxing Gibbous, 89% visible
Pressure 29.80 in
Visibility 10.0 miles
Clouds Scattered Clouds 4700 ft
Dew Point 49 °F
Humidity 88%
Rainfall 0.00 in
Snow Depth Not available.
UV 0 out of 12
Pollen 5.70 out of 12
Air Quality Not available.
Flu Activity Not available.
METAR KBLH 311152Z AUTO 30006KT 10SM SCT047 12/11 A2981 RMK AO2 SLP091 70020 T01170106 10150 20117 56006

More Conditions Fewer Conditions

Pressure 29.80 in
Visibility 10.0 miles
Clouds Scattered Clouds 4700 ft
Dew Point 49 °F
Humidity 88%
Rainfall 0.00 in
Snow Depth Not available.
UV 0 out of 12
Pollen 5.70 out of 12
Air Quality Not available.
Flu Activity Not available.
METAR KBLH 311152Z AUTO 30006KT 10SM SCT047 12/11 A2981 RMK AO2 SLP091 70020 T01170106 10150 20117 56006

More Conditions Fewer Conditions

10-Day Weather Forecast

Almanac

Astronomy

Jan. 31, 2015 Rise Set
Actual Time
Civil Twilight
Nautical Twilight
Astronomical Twilight
Moon
Length of Visible Light
Length of Day
Tomorrow will be .
, % of the Moon is Illuminated

Today's Extremes

State Highs State Lows

Community

WunderPhotos

Upload Photos

1,792,039 photos uploaded!

WunderBlogs® & News

Nearby

Air Quality

  Air Quality AQ Index Pollutant
Not available.

Snow Depth

Station Depth Elevation

Earthquake Activity

City Distance Mag. Time & Date
Minimum magnitude displayed is 2.5.

Coastal Water Temperatures

Place Temperature

Nearby Weather Stations